Theta_e
321 323 324 326 328 332 337 344 342 349 342 336 338 340 341 345 345 347 349 349 349 348 347 346 343 344 340 339 339 337 339 341 341 338 338 338 338 339 338 340 339 339 338
319 321 323 325 327 331 336 342 343 346 343 339 343 343 344 344 347 348 350 350 350 349 345 348 345 345 341 341 341 340 338 337 338 333 330 324 333 336 341 341 340 339 340
315 318 320 322 324 327 334 336 342 344 345 344 345 347 348 346 344 346 347 348 348 345 347 348 346 345 343 340 343 344 341 336 337 337 331 322 321 329 333 335 338 338 338
316 317 318 320 324 326 328 333 338 342 343 347 349 351 343 341 343 346 348 344 346 347 348 348 346 345 344 344 344 343 343 340 330 329 333 334 331 323 323 332 335 337 334
315 315 316 318 321 323 325 333 336 339 345 348 350 346 348 346 347 346 348 349 348 347 348 348 347 348 344 345 343 341 341 337 335 331 330 330 330 331 328 322 327 331 331
314 316 317 319 319 321 323 327 332 342 347 347 348 350 349 348 345 347 346 346 345 346 348 348 349 348 345 345 345 343 338 337 335 334 333 328 325 326 326 328 328 325 329
314 317 318 318 320 322 324 327 338 343 347 347 347 348 350 351 351 349 346 347 345 345 347 347 346 344 345 344 344 342 339 336 334 336 330 330 331 333 332 330 329 323 326
316 320 324 325 323 322 325 333 338 343 346 347 348 351 352 349 349 350 347 344 343 344 349 346 346 345 343 342 342 337 335 337 335 336 334 331 331 333 332 330 329 322 323
316 322 329 329 329 323 330 336 341 345 346 347 348 349 349 349 346 348 348 342 345 343 346 345 344 342 341 340 340 334 336 336 336 336 336 334 337 332 333 336 335 330 318
317 324 330 331 332 332 336 341 344 345 346 346 347 346 347 346 347 346 343 343 344 344 344 343 341 341 339 338 338 335 336 335 336 334 333 334 336 337 336 334 332 333 328
315 325 329 330 334 337 340 343 344 344 344 345 345 345 343 343 343 342 343 344 344 343 341 340 339 337 337 337 337 336 335 334 335 332 327 333 335 336 336 338 335 331 331
312 324 327 327 335 339 341 342 343 343 344 344 343 341 342 342 343 342 342 343 341 340 338 336 335 335 334 337 336 335 333 334 333 327 326 328 333 332 335 330 327 335 337
311 321 327 326 331 338 340 341 342 341 340 339 339 340 341 341 341 341 341 339 337 336 335 335 334 333 334 335 336 335 333 333 333 327 325 326 329 331 331 326 335 335 336
310 318 327 326 331 335 338 338 339 339 338 338 338 338 339 338 338 339 338 337 336 335 335 335 334 335 334 335 334 333 333 330 328 326 324 325 326 331 329 334 332 334 332
310 316 327 326 329 332 336 337 337 336 337 335 334 334 336 337 338 337 337 337 335 335 335 335 335 335 335 333 334 333 334 332 325 326 325 327 326 324 325 329 334 334 329
310 316 327 326 328 331 333 334 335 335 335 331 331 334 335 336 337 337 337 335 335 336 335 335 334 334 331 304 306 319 335 331 326 324 326 328 323 323 316 317 319 328 328
311 315 328 326 331 331 332 334 334 334 331 329 332 334 335 335 335 335 334 334 335 337 335 335 334 333 333 304 304 309 335 332 326 325 325 324 327 325 331 314 315 314 312
312 315 327 331 333 333 333 335 334 331 328 329 332 333 333 333 334 334 334 335 336 335 336 335 333 333 328 304 303 309 334 333 330 326 326 323 325 325 328 330 330 330 331
323 325 330 334 333 333 333 334 332 328 328 330 331 332 332 332 332 332 334 336 335 336 336 335 333 333 329 302 303 313 333 331 330 327 324 324 324 307 307 328 327 328 326
324 326 331 335 333 334 336 333 328 327 328 330 331 332 332 333 332 333 334 336 336 335 334 332 332 318 328 301 303 318 330 330 326 324 321 310 316 300 305 328 325 322 319
321 325 332 332 334 336 335 330 327 327 330 332 332 333 333 334 335 336 335 335 333 334 333 331 329 328 327 320 302 307 331 328 323 322 317 314 300 299 302 312 327 321 323
322 327 331 332 334 335 333 329 326 330 332 333 332 333 336 334 334 336 334 334 335 334 332 330 327 325 326 307 304 303 308 314 324 321 315 309 297 298 300 312 301 302 312
325 328 330 332 334 334 333 327 328 332 332 332 332 334 335 334 335 334 333 332 333 332 331 327 327 323 324 325 300 300 302 307 324 320 305 296 296 297 299 299 300 305 321
326 328 330 332 332 333 330 328 331 333 332 332 333 334 334 333 335 333 333 331 333 331 328 326 326 326 324 326 327 322 319 305 308 304 310 305 305 304 304 306 312 324 322
329 330 330 332 332 333 328 330 332 332 332 333 333 334 334 335 334 334 330 332 335 329 330 329 328 327 325 325 317 318 324 323 310 313 317 316 314 313 314 317 318 320 319
331 331 333 333 332 330 327 330 332 332 333 333 332 332 332 333 332 331 329 297 300 301 302 301 315 326 307 299 300 298 298 299 300 317 318 315 315 315 316 317 317 318 316
Wind_Speed
20 18 16 15 15 15 15 14 14 11 8 7 8 8 10 9 9 8 10 12 12 14 14 10 9 11 10 11 11 8 10 6 3 5 8 9 11 11 9 8 8 9 9
21 19 17 16 16 16 14 14 12 11 10 8 8 7 8 8 8 8 10 12 13 13 12 11 11 12 9 10 9 11 7 5 5 5 5 8 3 7 6 7 7 8 5
22 22 21 20 18 17 15 13 12 11 11 11 8 7 7 5 8 9 9 10 11 10 13 12 10 10 9 10 11 9 9 6 6 6 5 3 4 4 5 7 6 6 4
23 23 23 23 21 20 17 15 11 11 10 12 11 12 10 9 8 9 9 9 13 13 12 12 11 11 9 8 9 8 7 6 5 3 8 9 6 3 3 5 6 6 4
22 22 22 22 20 18 16 14 12 12 10 12 12 11 10 7 9 9 14 13 10 12 12 12 14 11 8 9 8 7 6 6 7 8 5 7 7 5 4 4 6 5 3
13 14 14 15 16 15 14 13 13 10 10 12 13 12 10 10 11 12 12 11 10 9 12 13 11 10 8 8 7 8 8 8 6 4 7 6 6 5 5 2 4 5 3
10 9 11 10 11 13 13 11 12 11 11 12 12 12 12 12 14 14 11 13 10 10 11 11 10 9 8 8 7 8 7 8 7 8 5 5 4 5 5 4 5 5 3
9 11 11 10 10 10 12 12 11 11 12 12 13 12 13 10 11 10 11 9 9 10 13 9 9 8 9 7 7 7 6 7 7 8 6 6 6 4 5 4 5 5 4
11 14 13 9 7 9 10 12 12 13 13 14 13 14 12 13 11 13 10 9 9 9 11 10 9 9 8 7 7 5 7 7 7 6 7 7 4 5 7 4 5 5 6
15 15 10 7 4 5 8 11 13 15 15 15 14 13 13 13 13 12 11 11 10 10 10 10 8 8 7 8 7 6 8 8 6 6 5 6 5 4 5 5 5 2 4
17 15 10 7 7 7 11 12 15 16 16 15 14 15 14 14 13 12 11 11 10 9 9 8 9 9 8 8 7 6 7 9 7 4 5 7 7 5 6 4 5 6 5
18 14 8 5 2 9 13 14 15 16 16 15 15 15 15 14 13 12 11 10 9 9 9 9 9 8 8 8 8 9 8 9 8 6 3 3 4 6 5 4 5 7 6
18 13 7 4 4 10 13 14 15 16 16 16 16 15 14 13 12 11 10 10 10 10 9 8 8 8 7 7 8 7 8 6 7 7 5 4 4 6 6 5 7 6 6
17 13 7 1 5 10 13 14 14 15 15 16 15 14 13 12 11 11 11 11 10 10 9 8 8 7 6 6 6 5 4 3 6 5 4 4 5 8 7 8 7 9 9
16 14 5 3 5 9 12 13 14 14 14 14 14 13 12 12 12 11 11 10 10 9 9 8 6 5 4 1 3 5 6 7 6 5 4 4 6 7 7 5 8 12 9
15 14 5 5 6 9 13 13 14 14 13 13 13 13 12 12 11 11 11 10 10 9 8 7 6 5 2 6 5 7 4 9 7 5 5 4 5 6 9 7 11 13 13
14 13 3 9 10 9 12 14 14 13 13 13 13 12 11 10 10 11 12 11 10 8 7 6 5 4 6 4 3 7 2 6 6 5 4 3 2 6 8 7 8 11 5
16 13 3 12 11 12 14 15 15 14 13 13 13 11 10 10 10 11 11 10 8 8 7 5 5 4 6 3 3 6 5 6 7 6 5 5 5 6 11 12 13 13 11
16 7 4 13 11 14 14 15 15 14 14 14 12 11 10 10 11 11 11 9 9 8 6 5 5 5 6 2 2 6 4 6 8 6 6 6 5 9 8 11 13 12 8
13 10 7 14 13 16 17 16 15 14 14 13 12 10 10 11 11 11 11 9 8 8 6 7 8 6 7 2 1 1 3 5 5 5 5 8 7 8 9 10 12 12 10
12 11 10 12 15 17 17 16 15 15 14 13 12 10 9 10 10 10 8 9 9 8 7 9 7 5 5 5 1 4 2 5 4 5 3 3 10 9 10 8 10 11 12
10 10 11 13 16 17 17 16 15 15 14 13 12 11 10 8 9 11 9 10 9 9 8 10 7 4 4 4 4 4 7 4 5 4 3 4 9 10 9 5 16 14 13
7 10 12 14 16 17 16 16 16 15 13 13 12 11 10 9 10 10 9 7 7 7 8 8 8 5 3 4 6 6 6 7 6 6 8 11 9 10 9 15 16 14 9
8 11 12 16 17 17 16 15 16 15 14 13 12 11 11 10 9 7 7 6 7 6 6 7 8 7 5 4 6 5 6 10 9 11 7 8 8 8 8 9 9 8 8
10 11 13 15 18 18 16 16 16 15 14 13 11 11 9 8 9 6 3 2 5 3 6 6 6 8 7 5 8 5 6 7 7 9 7 6 6 7 8 4 5 7 7
12 13 15 17 18 18 17 17 16 15 14 12 10 9 10 9 8 7 8 14 11 10 10 11 5 6 11 12 10 10 13 16 11 5 7 8 7 6 6 6 6 6 7
Wind_Direction
266 270 267 267 264 258 256 250 248 241 238 218 222 221 219 210 208 202 195 186 195 194 195 198 180 199 197 204 201 209 220 229 209 250 241 243 233 243 246 233 222 228 237
271 272 271 265 258 261 256 257 252 248 227 222 226 231 214 201 197 184 179 190 193 185 184 189 182 191 185 192 188 206 206 203 200 248 278 267 218 229 229 229 229 204 218
270 269 269 268 265 257 250 250 251 240 226 232 208 197 172 159 176 179 179 181 180 163 183 183 177 172 199 182 190 194 204 208 214 248 242 260 265 177 198 210 220 197 201
262 265 265 263 258 257 254 247 235 228 219 207 202 195 188 171 178 175 148 164 170 174 176 169 169 181 199 164 186 194 210 218 207 219 244 251 299 287 200 177 203 183 166
263 266 266 265 260 257 251 241 233 237 221 197 210 186 200 158 160 159 143 152 159 163 162 166 179 178 189 181 178 176 214 202 235 217 194 218 226 209 240 188 166 165 141
271 266 271 269 257 249 240 234 229 218 197 193 193 190 177 160 150 148 154 149 150 159 166 173 173 170 185 179 184 181 192 228 232 224 214 216 218 212 247 216 182 151 137
279 296 284 278 260 232 229 216 202 188 183 181 175 174 163 164 151 157 153 147 153 159 163 164 165 173 182 180 185 192 196 201 214 219 213 238 202 221 225 220 158 151 160
324 315 302 286 267 233 209 201 186 173 170 163 157 154 154 154 146 152 138 147 159 161 156 165 170 168 178 179 185 185 203 199 212 213 222 244 241 214 217 210 163 151 151
330 331 323 300 268 217 188 191 173 162 159 151 145 144 147 146 129 130 147 148 138 133 162 165 166 173 178 179 172 207 202 203 215 205 217 226 257 206 226 179 192 189 153
342 347 338 332 287 183 178 170 160 154 149 146 140 138 137 129 133 136 138 145 134 147 155 159 168 176 176 181 189 180 196 201 202 202 202 214 215 225 219 193 161 178 154
352 359 352 347 260 170 151 150 149 145 144 142 135 134 130 130 134 137 139 140 143 147 158 165 174 174 177 184 192 206 183 208 196 170 233 228 211 198 198 198 192 169 176
347 12 360 355 292 154 146 144 144 142 139 136 135 131 131 133 135 138 139 142 143 153 152 162 169 174 180 184 198 210 211 210 184 175 192 254 211 206 188 178 231 172 173
338 8 21 13 219 149 146 145 146 138 139 137 134 134 135 137 137 138 138 142 145 147 153 164 172 181 188 185 209 220 216 205 172 162 163 239 247 196 180 194 185 182 147
330 359 45 358 223 163 147 145 137 139 139 138 136 135 136 136 137 138 144 148 149 151 160 169 168 165 183 191 213 202 179 134 107 160 193 207 225 230 186 187 200 155 144
325 349 55 187 248 168 147 137 138 139 138 137 136 135 135 138 141 146 152 147 152 158 160 161 158 149 175 150 282 188 163 151 145 172 202 220 230 252 174 195 152 150 141
320 330 92 184 221 160 153 145 143 142 140 140 136 139 142 145 146 151 151 154 153 160 157 157 151 145 126 58 340 310 165 156 156 171 197 215 224 185 196 239 161 164 154
307 318 151 189 178 174 156 155 147 149 147 144 142 144 147 149 154 159 154 159 163 161 152 146 133 135 116 55 302 280 214 142 158 159 157 161 196 192 181 100 89 108 103
297 297 195 186 168 172 166 153 153 154 153 146 146 149 156 150 155 160 162 159 156 157 152 138 126 128 82 38 219 249 144 158 141 136 147 139 154 164 176 168 151 148 157
305 294 216 176 172 170 162 159 160 161 156 150 150 152 149 153 156 165 165 157 154 155 147 126 132 102 89 92 228 271 137 123 123 127 135 139 140 140 163 162 144 151 106
298 300 199 170 171 174 166 162 162 162 160 152 149 150 153 158 166 158 157 157 156 156 141 128 91 86 113 136 264 290 88 96 98 99 120 136 141 149 154 150 141 132 125
288 287 189 163 175 168 166 170 163 165 160 150 142 146 154 162 158 155 150 158 163 147 139 115 98 100 109 116 28 337 225 135 119 124 116 118 141 151 144 148 149 133 135
275 237 187 175 172 166 171 167 168 166 159 149 146 148 153 155 151 149 154 164 162 154 148 128 125 106 115 78 99 40 46 106 122 117 108 122 144 144 129 129 117 125 134
237 253 179 171 164 171 173 164 167 166 155 153 149 150 159 147 145 152 154 161 172 171 165 163 130 131 132 128 79 80 86 89 120 98 89 106 107 108 93 128 130 143 144
208 228 176 168 167 172 170 163 166 159 159 153 154 156 155 149 152 152 156 171 172 180 186 172 147 135 145 156 148 135 113 98 95 100 101 100 92 89 108 131 155 143 150
194 207 174 166 168 170 167 161 160 164 158 152 157 158 148 162 148 129 82 149 133 195 176 162 153 152 165 163 107 136 151 127 123 121 123 113 109 118 131 138 133 136 137
183 182 173 167 165 167 165 157 168 163 158 157 164 166 156 161 144 147 134 57 50 46 38 41 38 97 102 115 104 104 106 120 142 130 128 121 121 130 123 122 124 133 152